{"data":{"norad_id":53484,"intl_designator":"2022-099V","name":"STARLINK-4426","alt_names":[],"object_type":"PAYLOAD","status":"ACTIVE","operator":null,"country":"US","launch_date":"2022-08-12","launch_site_code":"AFWTR","launch_vehicle":null,"mission":null,"orbit_class":"UNKNOWN","rcs_meters":null,"size_class":null,"mass_kg":null,"dimensions":null,"purposes":["comms"],"wikipedia_slug":null,"has_3d_model":false,"image_url":null,"decayed_at":null,"tle_current":{"epoch":"2026-05-24T21:39:54.749664Z","epoch_age_seconds":76841,"freshness":"FRESH","line1":"1 53484U 22099V   26144.90271701  .00000372  00000+0  29864-4 0  9994","line2":"2 53484  97.4471 265.9397 0001733 115.2413 244.8994 15.05649847207514","mean_motion":15.05649847,"eccentricity":0.0001733,"inclination_deg":97.4471,"raan_deg":265.9397,"arg_perigee_deg":115.2413,"mean_anomaly_deg":244.8994,"bstar":2.9864e-5,"rev_number":20751,"period_min":95.639766634267,"perigee_km":548.31106184506,"apogee_km":550.71218485791,"semimajor_km":6927.6486233515,"source":"CELESTRAK","updated_at":"2026-05-25T13:38:17.433433Z"}}}